date,time,SUV Intensity [MED/Hr],UV Index,Daily total [MED],Since Last [MED]
16/08/2022,00:11:43,0.000,0.0,0.0,0.0
16/08/2022,00:12:44,0.000,0.0,0.0,0.0
16/08/2022,00:13:43,0.000,0.0,0.0,0.0
16/08/2022,00:14:43,0.001,0.0,0.0,0.0
16/08/2022,00:15:53,0.000,0.0,0.0,0.0
16/08/2022,00:16:42,0.001,0.0,0.0,0.0
16/08/2022,00:17:43,0.001,0.0,0.0,0.0
16/08/2022,00:18:52,0.000,0.0,0.0,0.0
16/08/2022,00:19:43,0.000,0.0,0.0,0.0
16/08/2022,00:20:43,-0.000,0.0,0.0,0.0
16/08/2022,00:21:43,-0.001,0.0,0.0,0.0
16/08/2022,00:22:43,0.001,0.0,0.0,0.0
16/08/2022,00:23:44,0.000,0.0,0.0,0.0
16/08/2022,00:24:43,0.000,0.0,0.0,0.0
16/08/2022,00:25:43,0.000,0.0,0.0,0.0
16/08/2022,00:26:43,0.001,0.0,0.0,0.0
16/08/2022,00:27:43,0.000,0.0,0.0,0.0
16/08/2022,00:28:44,0.000,0.0,0.0,0.0
16/08/2022,00:29:43,0.001,0.0,0.0,0.0
16/08/2022,00:30:43,0.000,0.0,0.0,0.0
16/08/2022,00:31:43,0.000,0.0,0.0,0.0
16/08/2022,00:32:43,0.001,0.0,0.0,0.0
16/08/2022,00:33:43,0.001,0.0,0.0,0.0
16/08/2022,00:34:43,0.000,0.0,0.0,0.0
16/08/2022,00:35:43,0.000,0.0,0.0,0.0
16/08/2022,00:36:44,0.000,0.0,0.0,0.0
16/08/2022,00:37:43,0.000,0.0,0.0,0.0
16/08/2022,00:38:43,0.000,0.0,0.0,0.0
16/08/2022,00:39:44,0.000,0.0,0.0,0.0
16/08/2022,00:40:44,0.000,0.0,0.0,0.0
16/08/2022,00:41:43,0.000,0.0,0.0,0.0
16/08/2022,00:42:44,0.000,0.0,0.0,0.0
16/08/2022,00:43:43,0.001,0.0,0.0,0.0
16/08/2022,00:44:52,0.001,0.0,0.0,0.0
16/08/2022,00:45:43,0.000,0.0,0.0,0.0
16/08/2022,00:46:43,0.000,0.0,0.0,0.0
16/08/2022,00:47:51,0.001,0.0,0.0,0.0
16/08/2022,00:48:43,0.001,0.0,0.0,0.0
16/08/2022,00:49:51,0.001,0.0,0.0,0.0
16/08/2022,00:50:43,0.000,0.0,0.0,0.0
16/08/2022,00:51:43,0.000,0.0,0.0,0.0
16/08/2022,00:52:44,0.001,0.0,0.0,0.0
16/08/2022,00:53:43,0.000,0.0,0.0,0.0
16/08/2022,00:54:44,0.000,0.0,0.0,0.0
16/08/2022,00:55:51,0.001,0.0,0.0,0.0
16/08/2022,00:56:43,0.000,0.0,0.0,0.0
16/08/2022,00:57:43,0.001,0.0,0.0,0.0
16/08/2022,00:58:52,0.000,0.0,0.0,0.0
16/08/2022,00:59:44,0.000,0.0,0.0,0.0
16/08/2022,01:00:44,0.000,0.0,0.0,0.0
16/08/2022,01:01:43,0.001,0.0,0.0,0.0
16/08/2022,01:02:43,0.000,0.0,0.0,0.0
16/08/2022,01:03:43,0.000,0.0,0.0,0.0
16/08/2022,01:04:43,0.000,0.0,0.0,0.0
16/08/2022,01:05:43,0.000,0.0,0.0,0.0
16/08/2022,01:06:43,0.000,0.0,0.0,0.0
16/08/2022,01:07:44,0.000,0.0,0.0,0.0
16/08/2022,01:08:43,0.000,0.0,0.0,0.0
16/08/2022,01:09:43,0.000,0.0,0.0,0.0
16/08/2022,01:10:44,0.000,0.0,0.0,0.0
16/08/2022,01:11:43,0.000,0.0,0.0,0.0
16/08/2022,01:12:43,0.000,0.0,0.0,0.0
16/08/2022,01:13:43,-0.000,0.0,0.0,0.0
16/08/2022,01:14:43,0.000,0.0,0.0,0.0
16/08/2022,01:15:43,0.000,0.0,0.0,0.0
16/08/2022,01:16:43,0.001,0.0,0.0,0.0
16/08/2022,01:17:43,0.001,0.0,0.0,0.0
16/08/2022,01:18:51,0.001,0.0,0.0,0.0
16/08/2022,01:19:43,0.001,0.0,0.0,0.0
16/08/2022,01:20:43,0.001,0.0,0.0,0.0
16/08/2022,01:21:52,0.001,0.0,0.0,0.0
16/08/2022,01:22:42,0.001,0.0,0.0,0.0
16/08/2022,01:23:43,0.001,0.0,0.0,0.0
16/08/2022,01:24:51,0.001,0.0,0.0,0.0
16/08/2022,01:25:44,-0.001,0.0,0.0,0.0
16/08/2022,01:26:43,0.001,0.0,0.0,0.0
16/08/2022,01:27:44,0.001,0.0,0.0,0.0
16/08/2022,01:28:43,0.001,0.0,0.0,0.0
16/08/2022,01:29:44,0.001,0.0,0.0,0.0
16/08/2022,01:30:44,0.001,0.0,0.0,0.0
16/08/2022,01:31:43,0.001,0.0,0.0,0.0
16/08/2022,01:32:43,0.001,0.0,0.0,0.0
16/08/2022,01:33:43,0.001,0.0,0.0,0.0
16/08/2022,01:34:43,0.001,0.0,0.0,0.0
16/08/2022,01:35:43,0.001,0.0,0.0,0.0
16/08/2022,01:36:56,0.001,0.0,0.0,0.0
16/08/2022,01:38:44,0.001,0.0,0.0,0.0
16/08/2022,01:39:44,0.001,0.0,0.0,0.0
16/08/2022,01:40:44,0.001,0.0,0.0,0.0
16/08/2022,01:41:44,0.001,0.0,0.0,0.0
16/08/2022,01:42:43,0.001,0.0,0.0,0.0
16/08/2022,01:43:44,0.001,0.0,0.0,0.0
16/08/2022,01:44:43,0.001,0.0,0.0,0.0
16/08/2022,01:45:44,0.001,0.0,0.0,0.0
16/08/2022,01:46:43,0.001,0.0,0.0,0.0
16/08/2022,01:47:51,0.001,0.0,0.0,0.0
16/08/2022,01:48:44,0.001,0.0,0.0,0.0
16/08/2022,01:49:44,0.001,0.0,0.0,0.0
16/08/2022,01:50:45,0.001,0.0,0.0,0.0
16/08/2022,01:51:43,0.001,0.0,0.0,0.0
16/08/2022,01:52:43,0.001,0.0,0.0,0.0
16/08/2022,01:53:43,0.001,0.0,0.0,0.0
16/08/2022,01:54:43,0.001,0.0,0.0,0.0
16/08/2022,01:55:43,0.000,0.0,0.0,0.0
16/08/2022,01:56:43,0.001,0.0,0.0,0.0
16/08/2022,01:57:44,-0.000,0.0,0.0,0.0
16/08/2022,01:58:52,0.001,0.0,0.0,0.0
16/08/2022,01:59:43,0.001,0.0,0.0,0.0
16/08/2022,02:00:43,0.001,0.0,0.0,0.0
16/08/2022,02:01:44,0.001,0.0,0.0,0.0
16/08/2022,02:02:43,0.001,0.0,0.0,0.0
16/08/2022,02:03:44,0.001,0.0,0.0,0.0
16/08/2022,02:04:43,0.001,0.0,0.0,0.0
16/08/2022,02:05:44,0.001,0.0,0.0,0.0
16/08/2022,02:06:43,0.001,0.0,0.0,0.0
16/08/2022,02:07:44,0.001,0.0,0.0,0.0
16/08/2022,02:08:44,0.000,0.0,0.0,0.0
16/08/2022,02:09:44,0.001,0.0,0.0,0.0
16/08/2022,02:10:43,0.001,0.0,0.0,0.0
16/08/2022,02:11:44,0.001,0.0,0.0,0.0
16/08/2022,02:12:43,0.001,0.0,0.0,0.0
16/08/2022,02:13:52,0.001,0.0,0.0,0.0
16/08/2022,02:14:43,0.000,0.0,0.0,0.0
16/08/2022,02:15:44,0.001,0.0,0.0,0.0
16/08/2022,02:16:43,0.001,0.0,0.0,0.0
16/08/2022,02:17:43,0.001,0.0,0.0,0.0
16/08/2022,02:18:52,0.001,0.0,0.0,0.0
16/08/2022,02:20:00,0.001,0.0,0.0,0.0
16/08/2022,02:21:44,0.001,0.0,0.0,0.0
16/08/2022,02:22:44,0.001,0.0,0.0,0.0
16/08/2022,02:23:43,0.001,0.0,0.0,0.0
16/08/2022,02:24:51,0.001,0.0,0.0,0.0
16/08/2022,02:25:43,0.001,0.0,0.0,0.0
16/08/2022,02:26:43,0.001,0.0,0.0,0.0
16/08/2022,02:27:52,0.001,0.0,0.0,0.0
16/08/2022,02:28:44,0.001,0.0,0.0,0.0
16/08/2022,02:29:44,0.001,0.0,0.0,0.0
16/08/2022,02:30:44,0.001,0.0,0.0,0.0
16/08/2022,02:31:44,0.001,0.0,0.0,0.0
16/08/2022,02:32:43,0.001,0.0,0.0,0.0
16/08/2022,02:33:44,0.001,0.0,0.0,0.0
16/08/2022,02:34:43,0.001,0.0,0.0,0.0
16/08/2022,02:35:43,0.001,0.0,0.0,0.0
16/08/2022,02:36:43,0.001,0.0,0.0,0.0
16/08/2022,02:37:43,0.000,0.0,0.0,0.0
16/08/2022,02:38:44,0.001,0.0,0.0,0.0
16/08/2022,02:39:44,0.001,0.0,0.0,0.0
16/08/2022,02:40:44,0.001,0.0,0.0,0.0
16/08/2022,02:41:43,0.001,0.0,0.0,0.0
16/08/2022,02:42:52,0.001,0.0,0.0,0.0
16/08/2022,02:43:44,0.001,0.0,0.0,0.0
16/08/2022,02:44:44,0.001,0.0,0.0,0.0
16/08/2022,02:45:44,0.001,0.0,0.0,0.0
16/08/2022,02:46:43,0.001,0.0,0.0,0.0
16/08/2022,02:47:52,0.001,0.0,0.0,0.0
16/08/2022,02:48:44,0.001,0.0,0.0,0.0
16/08/2022,02:49:44,0.001,0.0,0.0,0.0
16/08/2022,02:50:43,0.001,0.0,0.0,0.0
16/08/2022,02:51:43,0.001,0.0,0.0,0.0
16/08/2022,02:52:44,0.000,0.0,0.0,0.0
16/08/2022,02:53:53,0.001,0.0,0.0,0.0
16/08/2022,02:54:42,0.001,0.0,0.0,0.0
16/08/2022,02:55:44,0.000,0.0,0.0,0.0
16/08/2022,02:56:52,0.001,0.0,0.0,0.0
16/08/2022,02:57:43,0.001,0.0,0.0,0.0
16/08/2022,02:58:43,0.001,0.0,0.0,0.0
16/08/2022,02:59:45,0.001,0.0,0.0,0.0
16/08/2022,03:00:44,0.001,0.0,0.0,0.0
16/08/2022,03:01:43,0.001,0.0,0.0,0.0
16/08/2022,03:02:44,0.001,0.0,0.0,0.0
16/08/2022,03:03:43,0.001,0.0,0.0,0.0
16/08/2022,03:04:43,0.001,0.0,0.0,0.0
16/08/2022,03:05:44,0.000,0.0,0.0,0.0
16/08/2022,03:06:44,0.001,0.0,0.0,0.0
16/08/2022,03:07:44,0.001,0.0,0.0,0.0
16/08/2022,03:08:44,0.001,0.0,0.0,0.0
16/08/2022,03:09:43,0.001,0.0,0.0,0.0
16/08/2022,03:10:44,0.000,0.0,0.0,0.0
16/08/2022,03:11:52,0.001,0.0,0.0,0.0
16/08/2022,03:12:43,0.001,0.0,0.0,0.0
16/08/2022,03:13:43,0.001,0.0,0.0,0.0
16/08/2022,03:14:43,0.001,0.0,0.0,0.0
16/08/2022,03:15:44,0.001,0.0,0.0,0.0
16/08/2022,03:16:44,0.001,0.0,0.0,0.0
16/08/2022,03:17:44,0.001,0.0,0.0,0.0
16/08/2022,03:18:44,0.001,0.0,0.0,0.0
16/08/2022,03:19:44,0.001,0.0,0.0,0.0
16/08/2022,03:20:44,0.000,0.0,0.0,0.0
16/08/2022,03:21:44,0.001,0.0,0.0,0.0
16/08/2022,03:22:52,0.000,0.0,0.0,0.0
16/08/2022,03:23:43,0.001,0.0,0.0,0.0
16/08/2022,03:24:44,0.000,0.0,0.0,0.0
16/08/2022,03:25:44,0.001,0.0,0.0,0.0
16/08/2022,03:26:44,0.001,0.0,0.0,0.0
16/08/2022,03:27:44,0.001,0.0,0.0,0.0
16/08/2022,03:28:43,0.001,0.0,0.0,0.0
16/08/2022,03:29:43,0.001,0.0,0.0,0.0
16/08/2022,03:30:44,0.001,0.0,0.0,0.0
16/08/2022,03:31:44,0.001,0.0,0.0,0.0
16/08/2022,03:32:44,0.001,0.0,0.0,0.0
16/08/2022,03:33:44,0.001,0.0,0.0,0.0
16/08/2022,03:34:44,0.001,0.0,0.0,0.0
16/08/2022,03:35:44,0.001,0.0,0.0,0.0
16/08/2022,03:36:44,0.000,0.0,0.0,0.0
16/08/2022,03:37:52,0.001,0.0,0.0,0.0
16/08/2022,03:38:44,0.001,0.0,0.0,0.0
16/08/2022,03:39:44,0.001,0.0,0.0,0.0
16/08/2022,03:40:52,0.001,0.0,0.0,0.0
16/08/2022,03:41:44,-0.001,0.0,0.0,0.0
16/08/2022,03:42:43,0.001,0.0,0.0,0.0
16/08/2022,03:43:44,0.000,0.0,0.0,0.0
16/08/2022,03:44:43,0.000,0.0,0.0,0.0
16/08/2022,03:45:44,0.001,0.0,0.0,0.0
16/08/2022,03:46:44,0.001,0.0,0.0,0.0
16/08/2022,03:47:43,0.001,0.0,0.0,0.0
16/08/2022,03:48:44,0.001,0.0,0.0,0.0
16/08/2022,03:49:44,0.001,0.0,0.0,0.0
16/08/2022,03:50:45,0.001,0.0,0.0,0.0
16/08/2022,03:51:44,0.001,0.0,0.0,0.0
16/08/2022,03:52:44,0.001,0.0,0.0,0.0
16/08/2022,03:53:43,0.001,0.0,0.0,0.0
16/08/2022,03:54:44,0.001,0.0,0.0,0.0
16/08/2022,03:55:43,0.001,0.0,0.0,0.0
16/08/2022,03:56:43,0.001,0.0,0.0,0.0
16/08/2022,03:57:44,0.001,0.0,0.0,0.0
16/08/2022,03:58:52,0.001,0.0,0.0,0.0
16/08/2022,03:59:43,0.000,0.0,0.0,0.0
16/08/2022,04:00:44,0.000,0.0,0.0,0.0
16/08/2022,04:01:52,0.001,0.0,0.0,0.0
16/08/2022,04:02:43,0.001,0.0,0.0,0.0
16/08/2022,04:03:45,0.001,0.0,0.0,0.0
16/08/2022,04:04:44,0.001,0.0,0.0,0.0
16/08/2022,04:05:44,0.001,0.0,0.0,0.0
16/08/2022,04:06:43,0.001,0.0,0.0,0.0
16/08/2022,04:07:44,0.001,0.0,0.0,0.0
16/08/2022,04:08:44,0.001,0.0,0.0,0.0
16/08/2022,04:09:44,0.001,0.0,0.0,0.0
16/08/2022,04:10:43,0.001,0.0,0.0,0.0
16/08/2022,04:11:44,0.001,0.0,0.0,0.0
16/08/2022,04:12:44,0.001,0.0,0.0,0.0
16/08/2022,04:13:44,0.000,0.0,0.0,0.0
16/08/2022,04:14:44,0.001,0.0,0.0,0.0
16/08/2022,04:15:43,0.000,0.0,0.0,0.0
16/08/2022,04:16:51,0.001,0.0,0.0,0.0
16/08/2022,04:17:43,0.001,0.0,0.0,0.0
16/08/2022,04:18:44,0.001,0.0,0.0,0.0
16/08/2022,04:19:44,0.001,0.0,0.0,0.0
16/08/2022,04:20:44,0.001,0.0,0.0,0.0
16/08/2022,04:21:43,0.001,0.0,0.0,0.0
16/08/2022,04:22:52,0.001,0.0,0.0,0.0
16/08/2022,04:23:43,0.001,0.0,0.0,0.0
16/08/2022,04:24:52,0.001,0.0,0.0,0.0
16/08/2022,04:25:43,0.001,0.0,0.0,0.0
16/08/2022,04:26:44,0.001,0.0,0.0,0.0
16/08/2022,04:27:52,0.001,0.0,0.0,0.0
16/08/2022,04:28:43,0.001,0.0,0.0,0.0
16/08/2022,04:29:56,0.001,0.0,0.0,0.0
16/08/2022,04:31:37,0.001,0.0,0.0,0.0
16/08/2022,04:32:45,0.001,0.0,0.0,0.0
16/08/2022,04:33:44,0.000,0.0,0.0,0.0
16/08/2022,04:34:44,0.001,0.0,0.0,0.0
16/08/2022,04:35:43,0.001,0.0,0.0,0.0
16/08/2022,04:36:44,0.001,0.0,0.0,0.0
16/08/2022,04:38:00,0.001,0.0,0.0,0.0
16/08/2022,04:39:45,0.001,0.0,0.0,0.0
16/08/2022,04:40:43,0.001,0.0,0.0,0.0
16/08/2022,04:41:44,0.001,0.0,0.0,0.0
16/08/2022,04:42:43,0.001,0.0,0.0,0.0
16/08/2022,04:43:44,0.001,0.0,0.0,0.0
16/08/2022,04:44:43,0.001,0.0,0.0,0.0
16/08/2022,04:45:52,0.001,0.0,0.0,0.0
16/08/2022,04:46:44,0.001,0.0,0.0,0.0
16/08/2022,04:47:44,0.001,0.0,0.0,0.0
16/08/2022,04:48:44,0.001,0.0,0.0,0.0
16/08/2022,04:49:44,0.001,0.0,0.0,0.0
16/08/2022,04:50:44,0.001,0.0,0.0,0.0
16/08/2022,04:51:52,0.001,0.0,0.0,0.0
16/08/2022,04:52:44,0.001,0.0,0.0,0.0
16/08/2022,04:53:44,0.001,0.0,0.0,0.0
16/08/2022,04:54:44,0.001,0.0,0.0,0.0
16/08/2022,04:55:44,0.001,0.0,0.0,0.0
16/08/2022,04:56:44,0.001,0.0,0.0,0.0
16/08/2022,04:57:44,0.001,0.0,0.0,0.0
16/08/2022,04:58:43,0.001,0.0,0.0,0.0
16/08/2022,04:59:44,0.002,0.0,0.0,0.0
16/08/2022,05:00:44,0.002,0.0,0.0,0.0
16/08/2022,05:01:44,0.001,0.0,0.0,0.0
16/08/2022,05:02:44,0.002,0.0,0.0,0.0
16/08/2022,05:03:44,0.002,0.0,0.0,0.0
16/08/2022,05:04:44,0.002,0.0,0.0,0.0
16/08/2022,05:05:44,0.002,0.0,0.0,0.0
16/08/2022,05:06:52,0.003,0.0,0.0,0.0
16/08/2022,05:07:43,0.002,0.0,0.0,0.0
16/08/2022,05:08:44,0.003,0.0,0.0,0.0
16/08/2022,05:09:52,0.003,0.0,0.0,0.0
16/08/2022,05:10:44,0.003,0.0,0.0,0.0
16/08/2022,05:11:45,0.002,0.0,0.0,0.0
16/08/2022,05:12:52,0.004,0.0,0.0,0.0
16/08/2022,05:13:43,0.002,0.0,0.0,0.0
16/08/2022,05:14:44,0.003,0.0,0.0,0.0
16/08/2022,05:15:44,0.003,0.0,0.0,0.0
16/08/2022,05:16:44,0.004,0.0,0.0,0.0
16/08/2022,05:17:43,0.004,0.0,0.0,0.0
16/08/2022,05:18:44,0.004,0.0,0.0,0.0
16/08/2022,05:19:44,0.005,0.0,0.0,0.0
16/08/2022,05:20:44,0.005,0.0,0.0,0.0
16/08/2022,05:21:45,0.006,0.0,0.0,0.0
16/08/2022,05:22:44,0.005,0.0,0.0,0.0
16/08/2022,05:23:43,0.006,0.0,0.0,0.0
16/08/2022,05:24:44,0.006,0.0,0.0,0.0
16/08/2022,05:25:44,0.007,0.0,0.0,0.0
16/08/2022,05:26:44,0.006,0.0,0.0,0.0
16/08/2022,05:27:43,0.006,0.0,0.0,0.0
16/08/2022,05:28:43,0.007,0.0,0.0,0.0
16/08/2022,05:29:44,0.007,0.0,0.0,0.0
16/08/2022,05:30:52,0.008,0.0,0.0,0.0
16/08/2022,05:31:43,0.006,0.0,0.001,0.001
16/08/2022,05:32:44,0.007,0.0,0.001,0.0
16/08/2022,05:33:44,0.009,0.0,0.001,0.0
16/08/2022,05:34:44,0.007,0.0,0.001,0.0
16/08/2022,05:35:44,0.008,0.0,0.001,0.0
16/08/2022,05:36:44,0.009,0.0,0.001,0.0
16/08/2022,05:37:44,0.006,0.0,0.001,0.0
16/08/2022,05:38:44,0.010,0.0,0.002,0.001
16/08/2022,05:39:44,0.009,0.0,0.002,0.0
16/08/2022,05:40:44,0.010,0.0,0.002,0.0
16/08/2022,05:41:43,0.010,0.0,0.002,0.0
16/08/2022,05:42:44,0.010,0.0,0.002,0.0
16/08/2022,05:43:44,0.010,0.0,0.002,0.0
16/08/2022,05:44:46,0.011,0.0,0.003,0.001
16/08/2022,05:45:44,0.012,0.0,0.003,0.0
16/08/2022,05:46:44,0.013,0.0,0.003,0.0
16/08/2022,05:47:44,0.012,0.0,0.003,0.0
16/08/2022,05:48:44,0.012,0.0,0.003,0.0
16/08/2022,05:49:44,0.012,0.0,0.003,0.0
16/08/2022,05:50:44,0.014,0.0,0.004,0.001
16/08/2022,05:51:44,0.014,0.0,0.004,0.0
16/08/2022,05:52:44,0.015,0.0,0.004,0.0
16/08/2022,05:53:52,0.015,0.0,0.004,0.0
16/08/2022,05:54:43,0.016,0.0,0.005,0.001
16/08/2022,05:55:44,0.015,0.0,0.005,0.0
16/08/2022,05:57:15,0.017,0.0,0.005,0.0
16/08/2022,05:58:44,0.018,0.0,0.006,0.001
16/08/2022,05:59:44,0.017,0.0,0.006,0.0
16/08/2022,06:00:44,0.018,0.0,0.006,0.0
16/08/2022,06:01:43,0.018,0.0,0.007,0.001
16/08/2022,06:02:44,0.018,0.0,0.007,0.0
16/08/2022,06:03:44,0.019,0.0,0.007,0.0
16/08/2022,06:04:44,0.020,0.0,0.008,0.001
16/08/2022,06:05:44,0.020,0.0,0.008,0.0
16/08/2022,06:06:51,0.021,0.0,0.008,0.0
16/08/2022,06:07:44,0.022,0.0,0.009,0.001
16/08/2022,06:08:44,0.023,0.0,0.009,0.0
16/08/2022,06:09:44,0.024,0.0,0.009,0.0
16/08/2022,06:10:44,0.025,0.0,0.01,0.001
16/08/2022,06:11:52,0.025,0.0,0.01,0.0
16/08/2022,06:12:43,0.026,0.0,0.011,0.001
16/08/2022,06:13:44,0.026,0.0,0.011,0.0
16/08/2022,06:14:52,0.027,0.0,0.012,0.001
16/08/2022,06:15:43,0.027,0.0,0.012,0.0
16/08/2022,06:16:44,0.028,0.0,0.012,0.0
16/08/2022,06:17:52,0.029,0.0,0.013,0.001
16/08/2022,06:18:44,0.029,0.0,0.013,0.0
16/08/2022,06:19:43,0.030,0.0,0.014,0.001
16/08/2022,06:20:44,0.031,0.0,0.014,0.0
16/08/2022,06:21:44,0.031,0.0,0.015,0.001
16/08/2022,06:22:44,0.031,0.0,0.015,0.0
16/08/2022,06:23:43,0.031,0.0,0.016,0.001
16/08/2022,06:24:44,0.031,0.0,0.016,0.0
16/08/2022,06:25:43,0.031,0.0,0.017,0.001
16/08/2022,06:26:43,0.032,0.0,0.018,0.001
16/08/2022,06:27:43,0.033,0.0,0.018,0.0
16/08/2022,06:28:45,0.033,0.0,0.019,0.001
16/08/2022,06:29:43,0.033,0.0,0.019,0.0
16/08/2022,06:30:37,0.033,0.0,0.02,0.001
16/08/2022,06:31:45,0.034,0.0,0.02,0.0
16/08/2022,06:32:44,0.036,0.0,0.021,0.001
16/08/2022,06:33:44,0.036,0.0,0.021,0.0
16/08/2022,06:34:44,0.037,0.0,0.022,0.001
16/08/2022,06:35:52,0.038,0.0,0.023,0.001
16/08/2022,06:36:43,0.040,0.0,0.023,0.0
16/08/2022,06:37:44,0.039,0.0,0.024,0.001
16/08/2022,06:38:52,0.040,0.0,0.025,0.001
16/08/2022,06:39:44,0.041,0.0,0.025,0.0
16/08/2022,06:40:53,0.043,0.0,0.026,0.001
16/08/2022,06:41:44,0.043,0.0,0.027,0.001
16/08/2022,06:42:44,0.043,0.0,0.027,0.0
16/08/2022,06:43:44,0.045,0.0,0.028,0.001
16/08/2022,06:44:44,0.046,0.0,0.029,0.001
16/08/2022,06:45:44,0.048,0.0,0.03,0.001
16/08/2022,06:46:52,0.049,0.0,0.031,0.001
16/08/2022,06:47:43,0.052,0.0,0.031,0.0
16/08/2022,06:48:44,0.054,0.0,0.032,0.001
16/08/2022,06:49:53,0.056,0.0,0.033,0.001
16/08/2022,06:50:44,0.058,0.0,0.034,0.001
16/08/2022,06:51:43,0.060,0.0,0.035,0.001
16/08/2022,06:52:44,0.062,0.0,0.036,0.001
16/08/2022,06:53:44,0.063,0.0,0.037,0.001
16/08/2022,06:54:44,0.065,0.0,0.038,0.001
16/08/2022,06:55:44,0.066,0.0,0.039,0.001
16/08/2022,06:56:44,0.069,0.0,0.04,0.001
16/08/2022,06:57:44,0.070,0.0,0.042,0.002
16/08/2022,06:58:52,0.072,0.0,0.043,0.001
16/08/2022,06:59:43,0.073,0.0,0.044,0.001
16/08/2022,07:00:44,0.074,0.0,0.045,0.001
16/08/2022,07:01:44,0.076,0.0,0.047,0.002
16/08/2022,07:02:44,0.076,0.0,0.048,0.001
16/08/2022,07:03:44,0.077,0.0,0.049,0.001
16/08/2022,07:04:52,0.077,0.0,0.051,0.002
16/08/2022,07:05:44,0.077,0.0,0.052,0.001
16/08/2022,07:06:44,0.077,0.0,0.053,0.001
16/08/2022,07:07:52,0.077,0.0,0.054,0.001
16/08/2022,07:08:44,0.078,0.0,0.055,0.001
16/08/2022,07:09:45,0.078,0.0,0.057,0.002
16/08/2022,07:10:52,0.079,0.0,0.058,0.001
16/08/2022,07:11:44,0.080,0.0,0.059,0.001
16/08/2022,07:12:44,0.081,0.0,0.061,0.002
16/08/2022,07:13:52,0.081,0.0,0.062,0.001
16/08/2022,07:14:43,0.081,0.0,0.063,0.001
16/08/2022,07:15:44,0.081,0.0,0.065,0.002
16/08/2022,07:16:44,0.081,0.0,0.066,0.001
16/08/2022,07:17:44,0.080,0.0,0.068,0.002
16/08/2022,07:18:44,0.079,0.0,0.069,0.001
16/08/2022,07:19:44,0.078,0.0,0.07,0.001
16/08/2022,07:20:44,0.077,0.0,0.071,0.001
16/08/2022,07:21:44,0.075,0.0,0.073,0.002
16/08/2022,07:22:44,0.073,0.0,0.074,0.001
16/08/2022,07:23:44,0.073,0.0,0.075,0.001
16/08/2022,07:24:46,0.072,0.0,0.076,0.001
16/08/2022,07:25:44,0.071,0.0,0.078,0.002
16/08/2022,07:26:44,0.070,0.0,0.079,0.001
16/08/2022,07:27:44,0.069,0.0,0.08,0.001
16/08/2022,07:28:53,0.070,0.0,0.081,0.001
16/08/2022,07:29:44,0.070,0.0,0.082,0.001
16/08/2022,07:30:52,0.071,0.0,0.084,0.002
16/08/2022,07:31:44,0.073,0.0,0.085,0.001
16/08/2022,07:32:44,0.074,0.0,0.086,0.001
16/08/2022,07:33:44,0.077,0.0,0.087,0.001
16/08/2022,07:34:44,0.077,0.0,0.088,0.001
16/08/2022,07:35:44,0.081,0.0,0.09,0.002
16/08/2022,07:36:44,0.083,0.0,0.091,0.001
16/08/2022,07:37:44,0.087,0.0,0.093,0.002
16/08/2022,07:38:44,0.090,0.0,0.094,0.001
16/08/2022,07:39:44,0.094,0.0,0.096,0.002
16/08/2022,07:40:44,0.098,0.0,0.097,0.001
16/08/2022,07:41:44,0.101,0.0,0.099,0.002
16/08/2022,07:42:44,0.104,0.0,0.101,0.002
16/08/2022,07:43:44,0.108,0.0,0.102,0.001
16/08/2022,07:44:44,0.112,0.0,0.104,0.002
16/08/2022,07:45:44,0.116,0.0,0.106,0.002
16/08/2022,07:46:44,0.120,0.0,0.108,0.002
16/08/2022,07:47:44,0.125,0.0,0.11,0.002
16/08/2022,07:48:44,0.129,0.0,0.112,0.002
16/08/2022,07:49:44,0.133,0.0,0.114,0.002
16/08/2022,07:50:44,0.137,0.0,0.117,0.003
16/08/2022,07:51:44,0.140,0.0,0.119,0.002
16/08/2022,07:52:44,0.144,0.0,0.121,0.002
16/08/2022,07:53:44,0.148,0.0,0.124,0.003
16/08/2022,07:54:52,0.153,0.0,0.127,0.003
16/08/2022,07:55:44,0.158,0.0,0.129,0.002
16/08/2022,07:56:44,0.162,0.0,0.131,0.002
16/08/2022,07:57:44,0.170,0.0,0.134,0.003
16/08/2022,07:58:44,0.175,0.0,0.137,0.003
16/08/2022,07:59:44,0.181,0.0,0.14,0.003
16/08/2022,08:00:44,0.186,0.0,0.143,0.003
16/08/2022,08:01:44,0.191,0.0,0.146,0.003
16/08/2022,08:02:44,0.194,0.0,0.15,0.004
16/08/2022,08:03:44,0.197,0.0,0.153,0.003
16/08/2022,08:04:44,0.199,0.0,0.156,0.003
16/08/2022,08:05:44,0.201,0.0,0.159,0.003
16/08/2022,08:06:44,0.202,0.0,0.163,0.004
16/08/2022,08:07:44,0.203,0.0,0.166,0.003
16/08/2022,08:08:44,0.204,0.0,0.17,0.004
16/08/2022,08:09:44,0.204,0.0,0.173,0.003
16/08/2022,08:10:44,0.204,0.0,0.176,0.003
16/08/2022,08:11:44,0.206,0.0,0.18,0.004
16/08/2022,08:12:44,0.207,0.0,0.183,0.003
16/08/2022,08:13:44,0.210,0.0,0.187,0.004
16/08/2022,08:14:44,0.213,0.0,0.19,0.003
16/08/2022,08:15:44,0.218,1.0,0.194,0.004
16/08/2022,08:16:44,0.224,1.0,0.197,0.003
16/08/2022,08:17:44,0.231,1.0,0.201,0.004
16/08/2022,08:18:44,0.240,1.0,0.205,0.004
16/08/2022,08:19:44,0.249,1.0,0.209,0.004
16/08/2022,08:20:44,0.258,1.0,0.213,0.004
16/08/2022,08:21:44,0.270,1.0,0.218,0.005
16/08/2022,08:22:45,0.282,1.0,0.222,0.004
16/08/2022,08:23:52,0.296,1.0,0.228,0.006
16/08/2022,08:24:44,0.306,1.0,0.232,0.004
16/08/2022,08:25:44,0.317,1.0,0.237,0.005
16/08/2022,08:26:44,0.326,1.0,0.243,0.006
16/08/2022,08:27:44,0.337,1.0,0.248,0.005
16/08/2022,08:28:44,0.348,1.0,0.254,0.006
16/08/2022,08:29:44,0.358,1.0,0.26,0.006
16/08/2022,08:30:44,0.368,1.0,0.266,0.006
16/08/2022,08:31:44,0.378,1.0,0.272,0.006
16/08/2022,08:32:45,0.387,1.0,0.279,0.007
16/08/2022,08:33:44,0.395,1.0,0.285,0.006
16/08/2022,08:34:44,0.399,1.0,0.292,0.007
16/08/2022,08:35:44,0.399,1.0,0.298,0.006
16/08/2022,08:36:44,0.400,1.0,0.305,0.007
16/08/2022,08:37:45,0.400,1.0,0.312,0.007
16/08/2022,08:38:53,0.401,1.0,0.319,0.007
16/08/2022,08:39:44,0.401,1.0,0.325,0.006
16/08/2022,08:40:44,0.399,1.0,0.332,0.007
16/08/2022,08:41:44,0.398,1.0,0.338,0.006
16/08/2022,08:42:44,0.396,1.0,0.345,0.007
16/08/2022,08:43:44,0.398,1.0,0.352,0.007
16/08/2022,08:44:52,0.389,1.0,0.359,0.007
16/08/2022,08:45:44,0.388,1.0,0.365,0.006
16/08/2022,08:46:44,0.384,1.0,0.371,0.006
16/08/2022,08:47:44,0.390,1.0,0.378,0.007
16/08/2022,08:48:44,0.397,1.0,0.384,0.006
16/08/2022,08:49:52,0.408,1.0,0.392,0.008
16/08/2022,08:50:44,0.423,1.0,0.398,0.006
16/08/2022,08:51:44,0.439,1.0,0.405,0.007
16/08/2022,08:52:44,0.442,1.0,0.412,0.007
16/08/2022,08:53:44,0.451,1.0,0.42,0.008
16/08/2022,08:54:44,0.462,1.0,0.427,0.007
16/08/2022,08:55:44,0.455,1.0,0.435,0.008
16/08/2022,08:56:44,0.455,1.0,0.443,0.008
16/08/2022,08:57:44,0.450,1.0,0.45,0.007
16/08/2022,08:58:44,0.449,1.0,0.458,0.008
16/08/2022,08:59:44,0.446,1.0,0.465,0.007
16/08/2022,09:00:45,0.442,1.0,0.473,0.008
16/08/2022,09:01:44,0.439,1.0,0.48,0.007
16/08/2022,09:02:44,0.437,1.0,0.487,0.007
16/08/2022,09:03:44,0.436,1.0,0.494,0.007
16/08/2022,09:04:53,0.439,1.0,0.503,0.009
16/08/2022,09:05:44,0.442,1.0,0.509,0.006
16/08/2022,09:06:44,0.448,1.0,0.516,0.007
16/08/2022,09:07:44,0.458,1.0,0.524,0.008
16/08/2022,09:08:44,0.470,1.0,0.532,0.008
16/08/2022,09:09:36,0.483,1.0,0.539,0.007
16/08/2022,09:10:45,0.503,1.0,0.548,0.009
16/08/2022,09:11:44,0.518,1.0,0.556,0.008
16/08/2022,09:12:44,0.534,1.0,0.565,0.009
16/08/2022,09:13:44,0.542,1.0,0.574,0.009
16/08/2022,09:14:44,0.548,1.0,0.583,0.009
16/08/2022,09:15:44,0.546,1.0,0.592,0.009
16/08/2022,09:16:45,0.547,1.0,0.601,0.009
16/08/2022,09:17:45,0.549,1.0,0.611,0.01
16/08/2022,09:18:44,0.552,1.0,0.62,0.009
16/08/2022,09:19:44,0.559,1.0,0.629,0.009
16/08/2022,09:20:44,0.564,1.0,0.638,0.009
16/08/2022,09:21:44,0.569,1.0,0.648,0.01
16/08/2022,09:22:44,0.573,1.0,0.657,0.009
16/08/2022,09:23:44,0.573,1.0,0.667,0.01
16/08/2022,09:24:44,0.573,1.0,0.676,0.009
16/08/2022,09:25:53,0.572,1.0,0.687,0.011
16/08/2022,09:26:44,0.571,1.0,0.696,0.009
16/08/2022,09:27:44,0.571,1.0,0.705,0.009
16/08/2022,09:28:44,0.580,1.0,0.715,0.01
16/08/2022,09:29:45,0.597,1.0,0.724,0.009
16/08/2022,09:30:44,0.611,1.0,0.735,0.011
16/08/2022,09:31:45,0.628,1.0,0.745,0.01
16/08/2022,09:32:44,0.645,1.0,0.756,0.011
16/08/2022,09:33:44,0.667,2.0,0.766,0.01
16/08/2022,09:34:44,0.691,2.0,0.778,0.012
16/08/2022,09:35:44,0.707,2.0,0.789,0.011
16/08/2022,09:36:44,0.725,2.0,0.801,0.012
16/08/2022,09:37:44,0.780,2.0,0.814,0.013
16/08/2022,09:38:45,0.803,2.0,0.827,0.013
16/08/2022,09:39:44,0.792,2.0,0.841,0.014
16/08/2022,09:40:45,0.791,2.0,0.854,0.013
16/08/2022,09:41:44,0.762,2.0,0.867,0.013
16/08/2022,09:42:44,0.765,2.0,0.88,0.013
16/08/2022,09:43:44,0.762,2.0,0.893,0.013
16/08/2022,09:44:44,0.755,2.0,0.905,0.012
16/08/2022,09:45:44,0.715,2.0,0.918,0.013
16/08/2022,09:46:52,0.786,2.0,0.932,0.014
16/08/2022,09:47:44,0.736,2.0,0.943,0.011
16/08/2022,09:48:44,0.748,2.0,0.955,0.012
16/08/2022,09:49:53,0.743,2.0,0.969,0.014
16/08/2022,09:50:44,0.744,2.0,0.98,0.011
16/08/2022,09:51:53,0.750,2.0,0.994,0.014
16/08/2022,09:52:43,0.753,2.0,1.005,0.011
16/08/2022,09:53:44,0.749,2.0,1.017,0.012
16/08/2022,09:54:44,0.741,2.0,1.03,0.013
16/08/2022,09:55:44,0.737,2.0,1.042,0.012
16/08/2022,09:56:44,0.738,2.0,1.054,0.012
16/08/2022,09:57:44,0.745,2.0,1.067,0.013
16/08/2022,09:58:46,0.762,2.0,1.08,0.013
16/08/2022,09:59:44,0.816,2.0,1.093,0.013
16/08/2022,10:00:44,0.782,2.0,1.106,0.013
16/08/2022,10:01:44,0.798,2.0,1.119,0.013
16/08/2022,10:02:44,0.805,2.0,1.132,0.013
16/08/2022,10:03:44,0.805,2.0,1.146,0.014
16/08/2022,10:04:44,0.823,2.0,1.159,0.013
16/08/2022,10:05:45,0.813,2.0,1.173,0.014
16/08/2022,10:06:44,0.868,2.0,1.187,0.014
16/08/2022,10:07:53,0.865,2.0,1.203,0.016
16/08/2022,10:08:44,0.882,2.0,1.216,0.013
16/08/2022,10:09:44,0.936,2.0,1.231,0.015
16/08/2022,10:10:44,0.936,2.0,1.246,0.015
16/08/2022,10:11:44,0.905,2.0,1.262,0.016
16/08/2022,10:12:52,0.906,2.0,1.279,0.017
16/08/2022,10:13:44,0.956,2.0,1.292,0.013
16/08/2022,10:14:44,0.967,2.0,1.308,0.016
16/08/2022,10:15:44,1.067,2.0,1.325,0.017
16/08/2022,10:16:45,1.080,2.0,1.343,0.018
16/08/2022,10:17:44,1.047,2.0,1.361,0.018